Date,TemperatureHighF,TemperatureAvgF,TemperatureLowF,DewpointHighF,DewpointAvgF,DewpointLowF,HumidityHigh,HumidityAvg,HumidityLow,PressureMaxIn,PressureMinIn,WindSpeedMaxMPH,WindSpeedAvgMPH,GustSpeedMaxMPH,PrecipitationSumIn
2013-2-1,14,8,-2,10,-1,-10,85,68,58,30.48,30.25,18,2,20,0.00
2013-2-2,23,15,7,21,10,0,93,80,63,30.25,30.10,13,1,13,0.00
2013-2-3,27,17,9,21,11,2,87,75,61,30.15,30.05,15,1,15,0.00
2013-2-4,28,23,16,24,19,10,92,86,77,30.09,29.94,12,1,12,0.00
2013-2-5,30,22,6,28,17,1,92,83,71,30.17,29.89,10,1,15,0.01
2013-2-6,38,29,9,30,21,5,88,73,54,30.31,30.16,4,1,11,0.10
2013-2-7,35,32,27,34,32,27,99,97,82,30.16,29.93,9,0,9,27.04
2013-2-8,27,24,20,27,21,19,98,90,82,30.48,30.05,12,1,12,23.81
2013-2-9,32,27,24,27,23,21,96,85,74,30.48,30.15,16,1,16,3.53
2013-2-10,47,39,28,46,38,27,100,94,74,30.15,29.54,11,0,11,2.27
2013-2-11,42,34,30,34,26,22,81,72,67,30.11,29.57,0,0,0,0.00
2013-2-12,30,26,24,23,20,17,80,77,72,30.18,30.09,15,2,15,1.07
2013-2-13,43,34,20,34,30,18,97,86,63,29.99,29.78,1,0,4,6.09
2013-2-14,38,35,32,33,28,21,89,76,56,30.04,29.69,0,0,0,0.00
2013-2-15,32,26,18,25,13,6,82,59,37,30.27,30.04,14,2,14,22.60
2013-2-16,19,16,11,7,3,0,67,57,49,30.29,30.21,14,1,14,0.00
2013-2-17,31,20,5,15,6,0,86,58,33,30.32,30.04,4,1,16,0.00
2013-2-18,50,38,25,45,30,15,97,74,58,30.04,29.48,9,4,27,17.87
2013-2-19,25,14,9,22,7,1,87,75,66,30.30,29.65,10,6,29,0.00
2013-2-20,22,14,6,11,5,-2,82,68,60,30.46,30.32,4,1,15,0.00
2013-2-21,28,23,11,25,19,7,92,83,76,30.47,30.04,9,2,22,0.00
2013-2-22,33,29,24,32,26,21,96,90,84,30.02,29.86,17,2,17,52.80
2013-2-23,28,24,20,24,18,15,89,78,64,30.05,29.97,18,2,18,22.66
2013-2-24,45,26,13,40,18,9,89,71,48,30.22,30.05,9,0,9,5.61
2013-2-25,49,32,16,28,21,13,94,67,33,30.25,30.00,11,1,11,53.81
2013-2-26,36,33,31,32,29,24,99,85,62,30.00,29.60,24,4,24,0.01
2013-2-27,33,32,30,33,31,30,100,97,91,29.79,29.59,14,1,14,0.18
2013-2-28,36,32,27,32,27,18,98,82,69,30.15,29.79,15,2,15,0.14